Location: Chabot Space and Science Center
(37.8191°N, 122.1819°W)
Time: 09:11:13
(UTC-08:00)

Envisat - Visible Passes

Search period start: 03 December 2021 00:00
Search period end: 13 December 2021 00:00
Orbit: 764 x 766 km, 98.2° (Epoch: 02 December)

Date Brightness Start Highest point End Pass type
(mag) Time Alt. Az. Time Alt. Az. Time Alt. Az.
03 Dec 3.4 04:54:14 10° NNE 04:59:16 61° E 05:04:16 10° S visible
03 Dec 4.5 06:34:54 10° NNW 06:37:43 15° WNW 06:40:32 10° W visible
03 Dec 6.2 17:49:08 10° WSW 17:51:13 12° W 17:53:19 10° WNW visible
04 Dec 5.0 04:18:01 10° NE 04:22:15 26° E 04:26:28 10° SSE visible
04 Dec 3.6 05:56:45 10° N 06:01:14 33° WNW 06:05:43 10° SW visible
04 Dec 5.3 17:09:39 10° SSW 17:14:02 29° W 17:18:27 10° NW visible
05 Dec 6.1 03:43:44 10° ENE 03:45:02 11° E 03:46:22 10° ESE visible
05 Dec 2.8 05:19:28 10° N 05:24:33 75° WNW 05:29:36 10° SSW visible
06 Dec 3.9 04:42:47 10° NNE 04:47:41 47° E 04:52:33 10° S visible
06 Dec 4.2 06:22:47 10° NNW 06:26:18 19° WNW 06:29:49 10° WSW visible
06 Dec 5.9 17:36:24 10° SW 17:39:32 16° W 17:42:41 10° NW visible
07 Dec 5.4 04:06:52 10° NE 04:10:37 21° E 04:14:21 10° SE visible
07 Dec 3.3 05:45:01 10° N 05:49:45 41° WNW 05:54:30 10° SW visible
08 Dec 2.9 05:07:54 10° NNE 05:13:01 86° ESE 05:18:05 10° SSW visible
09 Dec 4.4 04:31:24 10° NNE 04:36:05 36° E 04:40:44 10° SSE visible
09 Dec 4.0 06:10:51 10° NNW 06:14:51 24° WNW 06:18:52 10° WSW visible
09 Dec 5.8 17:24:05 10° SW 17:27:53 21° W 17:31:43 10° NW visible
10 Dec 5.7 03:55:55 10° NE 03:58:57 16° E 04:01:59 10° SE visible
10 Dec 3.0 05:33:18 10° N 05:38:15 53° WNW 05:43:10 10° SSW visible
11 Dec 3.3 04:56:23 10° NNE 05:01:27 67° E 05:06:29 10° S visible
11 Dec 4.5 06:37:18 10° NNW 06:39:52 14° WNW 06:42:26 10° W visible
11 Dec 6.3 17:51:50 10° WSW 17:53:26 11° W 17:55:03 10° WNW visible
12 Dec 4.8 04:20:05 10° NE 04:24:28 28° E 04:28:48 10° SSE visible
12 Dec 3.7 05:59:00 10° N 06:03:24 30° WNW 06:07:47 10° SW visible
12 Dec 5.4 17:11:58 10° SSW 17:16:14 27° W 17:20:33 10° NW visible
